Powrót do katalogu

SL-14 DEB

AktywnyPO
NORAD 25999·DEBRIS·🇷🇺 Russia

Wystrzelony Sep 28, 1991 z Plesetsk Cosmodrome

Loading…

Następne Przeloty (najbliższe 24 godziny)

TLE

ŚwieżeSource: Space-Track

Epoka: Sep 14, 2026, 09:22 UTC

1 25999U 91068J   26257.39076786  .00000066  00000-0  30940-3 0  9997
2 25999  82.6953  52.8931 0063472 209.9865 177.0606 12.61984664239680

Śledź SL-14 DEB w czasie rzeczywistym z AllMySat

Download on the App Store